Location: Oberkirch
(48.5323°N, 8.0787°E)
Time: 11:55:23
(UTC+00:00)

CUBEBUG 2 - Pass Details

Date: 19 March 2026
Orbit: 548 x 627 km, 97.9° (Epoch: 14 April)

Event Time Altitude Azimuth Distance (km) Brightness Sun altitude
Rises 00:50:29 0° 26° (NNE) 2,910 ? -39.4°
Reaches altitude 10° 00:53:11 10° 43° (NE) 2,006 ? -39.2°
Enters shadow 00:53:22 11° 45° (NE) 1,952 ? -39.2°
